Regional Weather Roundup
Issued by NWS

Home | Current Version | Previous Version | Graphics & Text | Print | Product List | Glossary On
Versions: 1 2 3 4 5 6 7 8 9 10 11 12 13 14 15 16 17 18 19 20 21 22 23 24 25 26 27 28 29 30 31 32 33 34 35 36 37 38 39 40 41 42 43 44 45 46 47 48 49 50
000
ASUS43 KDMX 230701
RWRIA

WEATHER ROUNDUP FOR IOWA
NATIONAL WEATHER SERVICE DES MOINES IA
100 AM CST THU FEB 23 2017

NOTE: "FAIR" INDICATES FEW OR NO CLOUDS BELOW 12,000 FEET WITH NO
SIGNIFICANT WEATHER AND/OR OBSTRUCTIONS TO VISIBILITY.

* - THESE STATIONS ARE NOT NWS STATIONS...THUS NOT UNDER NWS
QUALITY CONTROL.  THEY ALSO DO NOT REPORT WEATHER SUCH
AS PRECIPITATION OR FOG.

IAZ001>003-012>014-020>022-031>034-043>046-230800-
   NORTHWEST IOWA

CITY           SKY/WX    TMP DP  RH WIND       PRES   REMARKS
CARROLL *      MOCLDY    39  39 100 N17       29.81R WCI  30
CHEROKEE *     CLOUDY    36  34  95 N9G18     29.86R WCI  29
DENISON *      PTCLDY    41  37  87 NE10      29.79R
LE MARS *      CLOUDY    36  34  93 N14G22    29.86F WCI  27
ORANGE CITY *  CLOUDY    36  34  93 NE9       29.86R WCI  29
SHELDON *      CLOUDY    34  34 100 N17G24    29.84R WCI  23
SIOUX CITY     CLOUDY    42  36  79 N23       29.81F
SPENCER        CLOUDY    35  33  92 N18       29.84R WCI  24
STORM LAKE *   CLOUDY    36  34  93 N15       29.83S WCI  26
$$

IAZ055>058-069>071-079>083-090>094-230800-
   SOUTHWEST IOWA

CITY           SKY/WX    TMP DP  RH WIND       PRES   REMARKS
ATLANTIC *     CLEAR     41  39  93 N9        29.79S
CLARINDA *     CLEAR     43  41  93 N10       29.79S
COUNCIL BLFS * CLEAR     43  41  93 N9        29.79R
CRESTON *      CLEAR     45  41  87 N15       29.78S
HARLAN  *      CLEAR     39  39 100 N8        29.82F WCI  34
LAMONI         PTCLDY    47  41  80 N9        29.77R
RED OAK *      CLEAR     43  39  87 NE10      29.78F
SHENANDOAH *   CLEAR     45  41  87 NE12      29.78R
$$

IAZ047>049-059>061-072>074-084-230800-
   CENTRAL IOWA

CITY           SKY/WX    TMP DP  RH WIND       PRES   REMARKS
AMES           CLOUDY    41  40  96 N16G23    29.79F
ANKENY *       CLEAR     45  39  81 N12       29.80R
BOONE *        CLOUDY    39  39 100 N15       29.79R WCI  31
CHARITON *     CLEAR     46  43  87 N9        29.76F
DES MOINES     PTCLDY    47  41  80 N8        29.78S
GRINNELL*      CLEAR     41  38  87 NW12      29.78S
KNOXVILLE *    CLEAR     46  37  71 N18G29    29.75S
MARSHALLTOWN   CLOUDY    41  39  93 NW17      29.77R
NEWTON *       CLEAR     43  37  81 N9        29.77R
PELLA *        CLEAR     44  38  80 N9        29.78S
PERRY *          N/A     40  38  92 N12       29.81R WCI  33
$$

IAZ004>006-015-016-023>025-035-036-230800-
   NORTH CENTRAL IOWA

CITY           SKY/WX    TMP DP  RH WIND       PRES   REMARKS
ALGONA *       CLOUDY    37  36  93 N16G25    29.82S WCI  28
CLARION *      CLOUDY    39  39 100 N15G23    29.82R WCI  31
ESTHERVILLE    CLOUDY    35  34  96 N21G28    29.82S WCI  24
FORT DODGE *   CLOUDY    39  32  75 NW8G21    29.83R WCI  34
MASON CITY     CLOUDY    39  36  89 NW16      29.79S WCI  30
FOREST CITY *  CLOUDY    37  36  93 NW18G24   29.79S WCI  27
WEBSTER CITY * CLOUDY    39  37  93 N22       29.79S WCI  29
IOWA FALLS *   CLOUDY    40  38  91 NW17G24   29.82R WCI  31
$$

IAZ007>011-017>019-026>030-037>042-050>054-066-230800-
   NORTHEAST IOWA

CITY           SKY/WX    TMP DP  RH WIND       PRES   REMARKS
CEDAR RAPIDS   CLEAR     43  41  93 NW17      29.74R
CHARLES CITY * CLOUDY    43  41  93 NW20      29.77R
CLINTON *      CLEAR     41  39  93 W9        29.71R
DECORAH *      CLOUDY    43  41  93 NW8G23    29.73R
DUBUQUE        CLEAR     46  43  89 NW12      29.70R
MONTICELLO *   CLEAR     45  43  93 NW15      29.72R
OELWEIN *      CLOUDY    43  43 100 NW22G29   29.75R
WATERLOO       CLOUDY    43  38  82 NW16      29.77R
$$

IAZ064-065-067-068-078-230800-
   EAST CENTRAL IOWA

CITY           SKY/WX    TMP DP  RH WIND       PRES   REMARKS
DAVENPORT      CLEAR     46  41  82 W7        29.71R
IOWA CITY      CLEAR     49  42  77 NW14      29.75R
MUSCATINE *    CLEAR     50  43  76 NW7       29.73R
QUAD CITIES    CLEAR    N/A N/A N/A W7        29.70R
$$

IAZ062-063-075>077-085>089-095>099-230800-
   SOUTHEAST IOWA

CITY           SKY/WX    TMP DP  RH WIND       PRES   REMARKS
BURLINGTON     CLEAR     54  44  69 NW10      29.71R
FAIRFIELD *    CLEAR     48  41  76 NW15      29.74R
KEOKUK *       CLEAR     54  45  71 N10       29.72R
OTTUMWA        CLEAR     46  40  79 NW10      29.76R
WASHINGTON *   CLEAR     48  43  81 NW16      29.75R
$$

ABBREVIATIONS USED IN REMARKS
   TC - TEMPERATURES IN CELSIUS
  WCI - WIND CHILL INDEX
   HX - HEAT INDEX
  VSB - VISIBILITY
$$





USA.gov is the U.S. government's official web portal to all federal, state and local government web resources and services.